Dewpoint
54 54 54 54 54 55 55 55 54 55 56 56 56 56 57 57 57 58 58 57 58 57 57 58 58 58 58 58 59 59 58 54 50 44 38 46 52 71 72 76 74 76 77 68 60 51 52 55 55 56 53 51 48 46 44 43 45 42 61 49 47 44 40 40 44 39 38 38 38 39 39 39 40 41 43 46 44 45 47 47 47 48 51 55 59 61 61 62
54 54 54 54 54 54 55 54 54 55 55 55 55 56 56 56 57 57 58 58 57 57 57 58 58 58 58 58 59 59 57 54 45 36 33 52 71 72 71 75 74 76 76 57 53 49 49 51 53 55 51 47 45 41 43 39 41 39 47 58 46 40 40 43 46 39 40 40 40 40 39 38 39 36 41 43 43 42 46 45 46 47 53 58 60 60 61 62
54 54 54 53 54 54 54 54 54 55 55 55 55 56 56 56 56 56 57 57 56 57 57 58 58 58 58 58 58 58 56 46 43 35 32 71 72 74 74 75 74 77 66 46 49 48 47 47 50 50 48 43 39 36 39 36 39 38 46 46 42 42 40 43 47 39 42 41 40 39 41 39 37 36 42 42 41 41 44 45 45 50 54 56 58 59 61 61
53 53 53 53 53 54 53 53 54 54 54 55 55 55 56 56 56 57 56 56 56 57 57 57 58 58 58 58 59 58 54 51 34 30 49 70 69 73 72 74 74 76 59 43 44 45 48 46 45 45 42 39 34 34 34 35 35 38 37 41 43 40 40 42 41 40 40 42 41 40 41 36 36 37 40 40 39 42 43 44 47 51 54 57 58 59 60 60
53 53 53 53 53 53 53 54 54 54 55 55 55 55 56 56 56 56 56 56 56 57 57 57 57 58 58 58 58 55 52 32 22 36 48 70 73 69 73 73 73 62 55 45 42 43 45 43 39 38 37 35 34 31 32 32 34 35 41 42 43 40 44 43 42 37 42 43 42 41 40 36 38 35 38 37 38 39 43 44 49 52 56 57 58 59 60 60
53 53 53 53 53 53 54 54 54 54 55 55 55 55 55 55 55 55 56 56 56 56 56 57 58 58 58 58 56 52 45 25 29 35 66 70 72 73 71 72 74 59 52 49 44 43 43 40 35 33 35 35 32 30 30 31 29 27 43 41 40 39 39 43 39 37 36 41 43 39 42 38 39 34 39 37 41 37 43 46 50 53 57 57 58 59 58 58
52 53 53 53 53 53 54 54 54 54 54 55 54 55 55 55 55 55 55 55 56 56 57 58 58 58 58 59 56 48 35 29 27 38 69 70 73 73 72 73 73 57 51 47 47 44 40 37 32 30 32 35 33 30 30 24 25 24 32 37 37 38 38 40 34 35 33 41 43 43 43 39 39 35 39 36 39 40 42 47 50 53 56 57 57 57 58 59
52 52 52 53 53 53 53 53 54 54 54 54 54 55 55 55 55 55 55 55 56 56 57 57 58 58 59 54 41 39 44 38 35 44 74 73 70 72 71 51 48 47 51 48 44 40 36 34 30 28 27 30 33 31 28 27 25 20 21 38 38 40 41 37 34 34 37 38 43 44 42 42 41 39 39 37 36 40 41 48 50 53 54 55 57 56 58 58
52 52 52 53 53 53 53 53 54 54 54 54 54 54 54 54 54 55 55 55 56 57 57 57 58 58 59 55 33 15 16 20 44 41 60 59 54 58 51 41 41 39 46 47 43 34 31 30 28 25 23 26 30 31 28 25 22 21 21 22 26 35 36 35 34 32 33 37 42 41 42 41 40 41 36 37 36 40 42 47 49 52 52 55 55 56 57 58
52 52 52 52 53 53 53 53 54 54 54 54 54 54 54 54 54 55 55 55 56 57 57 58 58 59 57 53 37 23 21 22 30 42 43 47 47 49 40 35 37 35 37 38 36 31 28 28 26 25 24 24 26 28 27 24 21 21 20 20 23 30 34 34 32 31 32 34 41 40 41 40 42 38 38 39 35 40 43 46 50 51 52 53 53 55 56 56
52 52 52 52 52 52 53 53 54 54 54 54 54 53 53 54 54 54 55 55 56 57 57 58 59 59 53 50 33 17 22 24 22 22 37 42 42 41 37 36 37 34 33 35 32 29 28 28 23 21 19 20 22 22 21 21 21 20 19 18 23 26 32 33 33 30 32 33 40 39 40 42 42 33 40 40 36 39 44 45 48 50 52 53 53 54 58 57
52 52 52 52 52 53 53 53 54 54 54 54 54 54 54 54 54 54 55 55 56 57 58 59 59 57 53 47 38 29 23 23 25 22 25 30 32 34 36 35 40 35 32 32 34 31 25 20 17 14 13 17 16 18 17 19 18 18 17 16 21 25 27 31 32 28 32 32 37 39 38 40 40 33 42 40 37 38 42 45 46 49 49 51 51 53 57 56
51 51 52 52 52 53 53 53 53 53 53 53 53 53 54 54 53 54 54 55 56 57 58 59 60 56 52 42 36 31 29 27 24 24 23 28 31 28 26 23 27 35 33 29 27 28 25 21 17 13 13 13 13 17 19 19 18 17 17 18 18 20 24 31 31 29 31 31 35 38 36 39 40 37 42 41 40 38 42 44 45 45 48 49 50 52 55 55
52 52 52 52 52 52 53 53 53 53 53 53 53 53 53 52 53 54 55 55 57 58 59 60 58 56 51 37 28 24 25 30 30 29 27 24 27 29 27 24 23 26 31 33 32 30 26 22 19 17 16 14 13 15 16 17 17 16 16 17 18 20 23 27 29 28 30 33 35 37 36 38 40 38 40 44 42 38 41 43 43 44 47 49 48 52 54 54
51 51 52 52 52 53 52 52 52 52 53 53 53 52 52 51 53 54 56 57 58 59 61 61 58 56 49 42 40 37 62 41 31 27 27 23 24 27 27 24 23 24 26 28 29 30 29 25 20 17 16 17 16 14 13 14 17 18 17 16 18 20 22 24 29 30 30 34 35 36 35 37 39 39 40 44 43 40 41 42 43 44 45 47 48 51 52 53
51 51 51 52 52 52 52 52 52 52 52 52 51 52 52 53 54 55 57 58 59 60 58 56 55 53 45 40 33 55 38 35 30 28 28 26 24 24 21 20 22 24 26 26 27 27 27 26 21 18 16 16 15 15 14 13 14 17 17 17 17 20 22 26 28 30 29 35 35 36 34 36 37 40 41 44 43 42 42 42 42 44 45 47 47 49 52 54
51 51 51 52 52 52 52 52 52 52 52 51 51 51 52 54 56 57 57 58 58 58 55 50 51 51 42 30 35 33 32 33 31 30 29 27 24 21 20 23 25 25 26 26 26 25 23 20 21 19 16 13 14 15 15 14 15 14 17 18 19 21 21 23 28 30 29 33 35 35 34 36 38 41 41 43 43 42 43 43 42 43 45 48 48 49 51 54
51 51 51 52 52 52 52 52 52 52 51 50 51 50 49 54 57 55 55 55 55 53 52 51 46 42 41 46 39 28 23 25 29 30 28 26 21 21 26 27 27 26 26 25 25 21 18 17 16 14 13 12 14 15 16 14 14 14 17 19 19 22 23 24 29 30 30 30 34 35 34 36 45 44 40 42 42 41 44 44 43 43 44 47 46 48 51 52
50 51 51 52 52 52 52 52 52 51 50 51 51 52 54 56 54 49 48 50 52 53 43 45 45 23 18 24 36 36 28 22 30 27 22 22 24 27 27 29 27 26 24 22 20 17 17 17 16 17 14 14 13 14 15 16 16 15 18 18 19 20 24 26 28 32 31 30 32 36 35 34 37 38 40 42 42 42 44 45 46 45 45 47 48 46 48 52
51 51 52 51 52 52 53 52 51 50 50 48 45 45 46 45 44 53 48 50 48 42 37 37 43 34 30 30 27 30 29 30 27 27 30 29 27 22 23 28 28 26 23 19 15 15 17 16 15 14 13 13 13 14 16 17 17 16 18 19 19 21 23 26 27 31 33 31 32 35 38 35 38 40 40 43 43 44 43 45 47 47 46 46 47 46 48 53
52 51 51 52 51 52 52 51 50 50 50 47 45 45 27 23 17 12 16 15 15 27 40 41 37 39 37 35 29 24 24 27 25 26 25 28 25 23 19 25 25 23 22 18 12 17 14 14 12 12 10 9 10 13 15 14 13 15 18 19 20 21 20 25 27 28 32 31 33 37 38 38 39 40 39 43 43 43 43 44 47 46 47 48 50 49 50 51
52 52 52 51 52 51 51 50 50 49 49 48 47 45 22 23 24 22 19 13 13 12 10 10 15 17 22 27 28 27 22 20 24 24 24 22 24 23 22 23 23 22 23 19 14 13 13 9 9 9 8 6 6 7 11 12 12 16 17 18 18 20 23 26 26 27 31 32 32 36 37 38 38 41 45 44 44 45 44 45 46 48 49 51 49 50 52 51
52 52 52 52 52 51 50 50 49 49 49 47 38 17 18 28 26 30 25 19 15 14 13 12 9 9 9 12 17 20 19 17 15 23 22 21 20 22 22 22 21 22 22 19 13 11 11 9 7 8 6 4 4 6 9 11 14 15 15 17 17 18 22 24 25 27 27 31 30 35 35 36 39 40 49 48 44 46 46 46 46 46 50 50 48 51 52 51
53 52 52 52 52 50 51 49 49 49 45 30 15 21 28 26 27 28 21 14 12 13 11 11 12 9 7 7 10 13 14 15 14 14 22 19 16 20 20 22 20 20 21 20 15 9 8 10 7 5 5 3 3 4 5 7 10 12 12 15 16 17 19 23 25 27 27 29 31 31 35 36 38 38 39 42 43 44 45 46 48 48 48 49 50 50 52 52
53 52 53 52 51 51 49 49 45 26 30 26 25 28 28 31 31 28 21 23 22 22 22 15 10 9 9 8 8 8 10 12 11 11 15 18 16 16 18 22 23 19 19 20 18 13 8 7 7 4 4 2 2 2 4 6 9 10 13 15 16 17 18 22 24 25 25 27 31 30 33 35 38 38 38 40 42 43 46 48 48 52 50 52 50 50 52 52
53 53 52 52 51 51 49 39 33 33 33 28 27 27 26 22 24 30 23 24 15 12 9 17 16 9 9 7 6 7 8 7 9 8 10 14 21 15 20 19 22 20 19 19 18 18 13 9 6 4 3 1 0 -0 4 8 9 10 13 15 16 16 18 19 23 25 27 28 31 32 31 33 38 38 39 40 44 45 48 49 47 51 54 50 50 51 52 51
52 52 52 52 51 50 40 26 34 38 32 23 24 25 23 22 40 25 26 23 21 19 15 14 11 7 9 8 6 6 6 7 9 9 8 14 16 18 17 17 20 21 19 18 19 16 17 13 7 6 4 2 -2 -2 0 5 6 7 10 13 15 16 16 17 19 23 24 26 28 32 32 33 34 37 40 40 42 44 49 51 49 47 52 49 48 48 53 51
52 52 52 52 50 50 45 43 42 37 30 27 29 26 27 32 34 26 28 22 13 14 13 10 13 12 9 6 6 10 10 18 9 8 9 9 15 16 16 17 17 19 19 18 16 16 16 14 11 7 5 1 -3 -4 -0 2 4 6 9 11 12 14 16 17 18 20 23 26 31 30 32 35 35 38 40 41 41 44 46 47 49 51 50 50 51 49 51 51
52 52 52 51 50 49 48 45 42 37 34 32 33 31 28 33 24 26 22 19 18 14 21 14 28 16 14 11 11 12 8 11 15 12 11 10 13 16 15 16 18 18 19 17 15 15 15 16 14 10 5 5 2 -3 -3 -1 2 6 8 8 10 12 15 17 18 18 22 26 27 28 28 31 33 36 37 39 40 44 45 47 47 49 50 50 50 52 51 53
52 52 52 51 48 43 39 35 30 34 37 35 35 35 28 23 22 21 16 17 14 8 20 22 20 18 16 14 15 15 12 9 15 16 14 11 12 16 16 17 15 18 18 18 16 15 15 22 22 13 9 9 7 1 -2 -4 -1 4 5 6 8 10 13 19 20 24 24 23 26 21 25 29 30 36 36 37 38 39 40 44 49 51 49 50 52 50 50 53
52 51 51 50 44 40 39 34 30 27 28 36 36 32 27 25 18 19 16 14 12 12 22 23 20 20 17 18 17 16 13 11 17 18 17 15 13 16 17 16 16 15 18 18 18 17 15 15 17 18 17 12 6 -2 -4 -5 -3 0 1 4 7 13 16 19 19 23 20 18 25 19 21 26 29 32 34 39 40 38 38 40 42 43 47 49 51 47 47 53
50 49 50 48 46 45 41 30 25 22 32 35 30 26 20 12 15 15 16 14 12 12 13 18 17 19 18 21 20 17 14 12 18 18 17 15 15 16 16 15 16 14 15 16 17 18 14 13 14 17 24 15 8 1 1 -2 -4 -6 -1 9 9 14 17 16 20 18 19 19 21 18 21 21 26 32 33 34 36 38 39 38 39 40 45 50 48 50 53 54
49 48 48 48 47 45 45 42 36 40 41 37 31 26 19 14 16 12 12 14 12 13 10 14 16 17 18 19 19 18 16 12 17 18 18 15 15 16 15 14 16 15 14 14 13 15 16 15 14 15 16 19 9 1 3 -3 -8 -6 4 11 13 12 13 18 17 19 18 19 16 15 20 22 27 28 31 31 35 36 37 40 40 41 45 50 51 55 52 52
49 49 47 46 45 44 42 45 45 43 39 40 33 22 18 14 14 22 12 11 12 12 12 12 12 15 16 16 18 17 16 16 17 17 18 17 15 16 16 14 14 15 11 11 10 12 15 15 13 14 14 15 10 4 3 1 1 3 4 4 10 14 8 15 15 15 14 17 17 11 17 25 21 30 28 31 34 37 37 37 43 46 48 53 51 52 51 53
49 48 48 46 44 44 47 45 42 38 38 37 28 19 14 14 14 12 12 13 12 13 12 11 12 12 13 16 17 16 16 17 17 17 18 17 16 14 15 13 13 12 13 11 13 15 12 14 15 14 15 14 10 7 6 2 -1 -0 -1 -1 2 7 14 10 15 15 17 16 17 22 20 23 23 37 32 34 31 35 36 38 42 46 45 50 47 48 51 52
47 43 41 41 39 38 34 41 42 38 38 35 27 19 13 14 11 11 11 12 12 12 11 12 9 11 11 13 16 16 14 14 16 16 16 17 16 14 12 13 11 10 12 15 14 13 15 14 15 16 15 13 13 13 9 5 2 -3 -7 -4 -4 -1 5 15 18 15 19 19 19 23 22 19 23 21 22 31 34 35 36 35 34 41 41 47 47 48 48 48
42 43 40 40 40 39 35 35 39 39 39 33 26 20 17 13 12 11 18 11 11 10 11 10 11 9 11 10 13 14 14 12 13 16 16 16 17 15 13 12 13 10 10 16 13 11 14 15 15 16 16 14 12 13 11 8 4 -3 -9 -8 -5 -2 4 15 9 20 18 17 20 16 16 20 22 23 27 28 31 33 35 36 34 40 42 42 47 48 51 52
43 42 44 43 43 43 39 37 41 40 36 32 28 34 23 17 15 11 11 9 8 7 7 9 10 10 8 10 11 13 13 10 11 13 13 14 16 18 15 14 12 13 12 13 14 12 10 12 14 15 15 14 11 12 12 11 8 2 -8 -7 -5 3 5 13 13 13 16 18 21 20 17 19 22 25 25 29 30 33 37 39 37 37 39 41 48 53 55 53
44 43 38 33 36 36 34 43 41 39 35 30 27 27 25 23 22 19 13 9 8 7 5 5 7 10 9 8 12 13 13 10 10 9 10 10 11 16 17 16 13 12 14 13 11 11 10 8 11 15 15 13 11 11 13 10 9 6 1 -8 -6 -1 5 10 13 20 24 18 18 17 19 21 24 20 22 25 33 38 36 38 36 34 37 38 48 51 55 57
41 34 29 28 35 40 44 40 35 33 31 30 28 25 25 21 21 21 20 19 17 16 9 4 5 7 10 9 10 12 12 11 11 9 8 9 8 11 15 17 15 13 13 14 12 10 11 22 13 11 16 14 12 13 11 10 7 5 -0 -3 -7 -1 3 5 5 13 17 21 18 19 16 22 26 21 19 28 35 38 37 39 44 39 37 35 40 49 53 54
36 34 30 29 26 39 39 36 31 26 26 26 27 27 26 24 23 21 19 18 15 14 12 10 5 4 8 12 10 9 11 10 11 9 9 9 8 13 12 14 15 14 13 13 13 11 15 15 16 14 13 15 13 13 13 12 9 6 2 -2 -7 -4 7 7 9 4 8 14 20 20 19 27 22 18 33 34 36 32 37 39 40 39 35 40 40 44 48 49
35 30 27 29 31 37 35 32 31 30 23 21 20 22 23 31 23 23 24 22 17 14 13 10 9 7 4 8 14 11 9 9 8 10 10 9 9 11 12 13 14 14 12 15 14 12 16 16 16 15 14 13 14 14 15 15 13 9 5 -1 -5 -6 -1 4 10 9 6 8 10 15 16 25 30 41 38 37 33 28 35 36 37 36 38 36 38 41 48 53
34 31 33 33 33 30 28 26 27 27 24 22 23 20 20 19 19 21 22 22 21 19 15 12 10 7 4 3 8 14 13 9 8 5 8 11 11 10 11 11 13 13 13 14 14 15 44 14 16 17 21 17 14 13 15 15 13 9 6 2 -6 -9 -7 -3 4 13 11 11 10 9 19 20 24 52 42 31 56 29 37 34 40 35 35 37 39 39 51 55
34 33 33 33 33 31 27 24 23 21 19 19 19 19 19 17 17 17 18 19 20 19 17 14 12 10 9 4 4 9 10 11 9 7 5 7 12 14 11 9 8 11 14 16 20 17 17 25 20 19 22 21 18 15 11 12 12 11 8 6 2 -3 -5 -5 -0 19 15 9 7 10 14 18 23 45 57 42 30 26 26 28 34 35 39 36 41 54 53 58
37 35 33 33 34 30 22 23 21 18 15 15 14 17 19 18 18 18 17 17 18 18 18 16 14 10 9 7 5 5 6 6 11 9 8 6 6 8 11 10 12 15 14 17 51 17 18 19 25 17 19 19 19 16 14 14 12 11 11 6 6 1 2 -1 -2 16 14 33 30 17 18 25 26 40 37 35 37 49 38 30 27 36 54 40 52 54 57 59
34 30 29 29 27 24 25 21 17 16 18 19 18 18 25 26 25 25 25 18 17 17 17 17 16 12 8 7 7 4 4 5 6 9 13 10 9 9 10 10 12 15 38 53 44 25 21 22 27 28 21 19 24 30 17 17 12 9 8 8 6 3 0 2 8 9 3 22 22 29 31 32 27 22 33 27 33 32 33 38 39 37 39 51 64 58 63 63
39 32 30 28 27 25 23 23 22 23 22 26 30 29 27 26 24 23 24 27 21 19 18 16 16 15 12 8 6 4 3 4 6 7 7 9 12 13 14 11 11 25 51 39 36 25 33 24 22 35 28 24 20 23 18 16 13 11 8 7 7 5 4 4 4 1 29 21 11 31 46 27 23 26 34 36 30 36 45 53 40 57 55 50 50 65 69 64
34 33 33 34 29 27 24 23 23 23 27 31 34 29 28 28 26 23 23 26 27 26 28 29 16 16 14 12 13 9 8 9 11 7 5 9 13 13 13 12 12 35 40 22 24 25 24 20 20 20 19 17 16 20 19 14 13 14 10 7 6 5 4 4 16 5 24 12 9 32 45 40 31 20 23 38 43 42 30 33 36 41 41 56 68 62 65 63
36 35 33 34 30 30 28 30 27 25 25 26 29 29 27 26 25 23 23 24 24 25 28 27 28 31 33 31 25 21 23 11 9 13 14 10 13 15 15 14 11 14 18 19 22 34 29 23 25 22 21 19 18 17 19 19 16 14 13 11 8 5 5 3 2 2 4 29 26 22 39 29 19 20 21 25 35 32 39 49 41 43 34 50 60 57 54 57
37 34 36 36 39 34 32 30 28 26 26 29 28 26 26 26 26 25 25 25 22 24 27 27 30 31 31 31 32 31 34 35 28 14 12 12 10 17 14 16 14 12 11 16 18 29 24 27 32 26 27 23 21 20 18 18 20 18 16 7 6 11 8 8 5 3 10 9 3 1 26 30 21 33 29 29 32 33 39 32 30 40 39 33 40 45 46 47
44 42 41 39 34 34 34 32 29 32 32 27 26 22 20 21 23 25 25 24 25 26 29 29 30 29 30 30 31 31 32 32 32 31 31 32 30 16 13 15 12 15 13 15 17 21 23 25 26 28 27 26 23 21 20 20 19 20 21 18 14 16 16 11 14 12 13 24 25 12 25 23 23 28 21 33 35 35 33 38 39 49 40 41 41 39 43 46
41 44 43 41 35 36 34 32 29 29 22 23 24 27 27 20 19 22 25 25 26 35 30 29 29 28 28 28 29 31 31 31 31 31 31 31 32 31 34 13 11 14 14 13 18 15 22 23 24 25 26 28 23 20 21 22 21 18 19 18 18 18 18 13 13 18 16 11 13 18 17 26 32 35 27 28 21 32 32 30 36 39 53 48 43 43 44 53